|
Explorer 11/Cluster Stage 4 - Orbit
|
Cranbrook Institute of Science;
03:23:33
| Home | Info | Passes |
|
View from above orbital plane
|
View from above satellite
|
Ground track
|
The orbit data is extracted from the following two-line orbital elements,
1 00107U 61013A 13145.83118508 .00001317 00000-0 16520-3 0 8041
2 00107 028.7898 312.6504 0570735 323.5452 194.2421 14.03018028602091
| Epoch (UTC): | 25 May 2013 19:56:54 |
| Eccentricity: | 0.0570735 |
| inclination: | 28.7898° |
| perigee height: | 469 km |
| apogee height: | 1298 km |
| right ascension of ascending node: | 312.6504° |
| argument of perigee: | 323.5452° |
| revolutions per day: | 14.03018028 |
| mean anomaly at epoch: | 194.2421° |
| orbit number at epoch: | 60209 |
The dashed part of the orbit path shows where the satellite is in the earth's shadow,
|
|